User: anonymous   Login
Location: Unspecified
(0.0000°N, 0.0000°E)
Time: 10:33:36
(UTC+00:00)
Language:

SAR-Lupe-5 - Orbit

View from above orbital plane
View from above orbital plane
View from above satellite
View from above satellite

Ground track
Ground track

The orbit data is extracted from the following two-line orbital elements,

1 33244U 08036A   18229.83744276 0.00000610  00000-0  22569-4 0    04
2 33244  98.1576  94.0201 0003996  15.1897 344.8102 15.27710370    03
Epoch (UTC): 17 August 2018 20:05:55
Eccentricity: 0.0003996
inclination: 98.1576°
perigee height: 480 km
apogee height: 485 km
right ascension of ascending node: 94.0201°
argument of perigee: 15.1897°
revolutions per day: 15.27710370
mean anomaly at epoch: 344.8102°
orbit number at epoch: 0

The dashed part of the orbit path shows where the satellite is in the earth's shadow,  

DLR